Vancouver, British Columbia

8:13 PM PST on February 22, 2017 (GMT -0800)
Vancouver International Airport

Weather History for CYVR - April, 2014

Change the Weather History Date:

Wednesday, April 2, 2014

  Actual Average Record
Temperature  
Mean Temperature 46 °F -  
Max Temperature 55 °F 55 °F 60 °F (2006)
Min Temperature 37 °F 41 °F 33 °F (1997)
Degree Days  
Heating Degree Days 19    
Moisture  
Dew Point 39 °F    
Average Humidity 70    
Maximum Humidity 87    
Minimum Humidity 49    
Precipitation  
Precipitation 0.00 in 0.10 in - ()
Sea Level Pressure  
Sea Level Pressure 29.97 in    
Wind  
Wind Speed 5 mph ()    
Max Wind Speed 10 mph    
Max Gust Speed -    
Visibility 19.8 miles    
Events      
Averages and records for this station are not official NWS values.
T = Trace of Precipitation, MM = Missing Value Source: Averaged Metar Reports

Daily Weather History Graph

Daily Weather History Graph

Search for Another Location

Airport or City:

Trip Planner

Search our weather history database for the weather conditions in past years. The results will help you decide how hot, cold, wet, or windy it might be!

Date:

Astronomy

Apr. 02, 2014 Rise Set
Actual Time 6:47 AM PDT 7:45 PM PDT
Civil Twilight 6:15 AM PDT 8:17 PM PDT
Nautical Twilight 5:36 AM PDT 8:56 PM PDT
Astronomical Twilight 4:55 AM PDT 9:38 PM PDT
Moon 8:21 AM PDT (4/2) 11:31 PM PDT (4/2)
Length of Visible Light 14h 02m
Length of Day
12h 57m
Waxing Crescent, 11% of the Moon is Illuminated
Apr 2
Waxing Crescent
Apr 7
First Quarter
Apr 15
Full
Apr 22
Last Quarter
Apr 28
New

Hourly Weather History & Observations

Time (PDT) Temp. Windchill Dew Point Humidity Pressure Visibility Wind Dir Wind Speed Gust Speed Precip Events Conditions
12:00 AM 42.8 °F 40.1 °F 35.6 °F 76% 29.87 in 30.0 mi East 4.6 mph - N/A   Clear
1:00 AM 44.6 °F 42.2 °F 35.6 °F 71% 29.88 in 30.0 mi ENE 4.6 mph - N/A   Clear
2:00 AM 44.6 °F - 35.6 °F 71% 29.89 in 30.0 mi ESE 2.3 mph - N/A   Clear
3:00 AM 41.0 °F 38.0 °F 33.8 °F 76% 29.89 in 30.0 mi East 4.6 mph - N/A   Partly Cloudy
4:00 AM 41.0 °F 36.4 °F 33.8 °F 76% 29.90 in 30.0 mi ENE 6.9 mph - N/A   Scattered Clouds
6:00 AM 39.2 °F 37.0 °F 33.8 °F 81% 29.92 in 30.0 mi North 3.5 mph - N/A   Partly Cloudy
7:00 AM 37.4 °F - 33.8 °F 87% 29.94 in 30.0 mi NNW 2.3 mph - N/A   Overcast
8:00 AM 41.0 °F - 37.4 °F 87% 29.94 in 20.0 mi North 2.3 mph - N/A   Overcast
9:00 AM 46.4 °F 41.9 °F 41.0 °F 81% 29.96 in 20.0 mi East 9.2 mph - N/A   Overcast
10:00 AM 48.2 °F - 41.0 °F 76% 29.98 in 20.0 mi ESE 5.8 mph - N/A   Overcast
11:00 AM 47 °F - 42 °F 75% 29.99 in 19 mi SSW 6.9 mph - -   Overcast
11:00 AM 48.2 °F - 41.0 °F 76% 29.99 in 20.0 mi SW 4.6 mph - N/A   Overcast
12:00 PM 51.8 °F - 37.4 °F 58% 30.00 in 30.0 mi SSE 9.2 mph - N/A   Overcast
1:00 PM 53.6 °F - 42.8 °F 67% 30.00 in 30.0 mi SSE 8.1 mph - N/A   Overcast
1:48 PM 53.6 °F - 39.2 °F 58% 30.00 in 30.0 mi ESE 8.1 mph - N/A   Overcast
2:00 PM 53.6 °F - 41.0 °F 62% 30.00 in 30.0 mi SE 10.4 mph - N/A   Overcast
3:00 PM 53.6 °F - 41.0 °F 62% 30.00 in 30.0 mi SSE 6.9 mph - N/A   Overcast
4:00 PM 55.4 °F - 41.0 °F 58% 29.99 in 30.0 mi South 5.8 mph - N/A   Overcast
5:00 PM 55 °F - 41 °F 49% 30.00 in 28 mi SE 9.2 mph - -   Overcast
5:00 PM 55.4 °F - 41.0 °F 58% 29.99 in 30.0 mi SE 9.2 mph - N/A   Overcast
6:00 PM 53.6 °F - 39.2 °F 58% 29.99 in 30.0 mi SE 10.4 mph - N/A   Overcast
7:00 PM 51.8 °F - 39.2 °F 62% 29.99 in 20.0 mi ESE 10.4 mph - N/A   Overcast
8:00 PM 51.8 °F - 39.2 °F 62% 29.99 in 20.0 mi East 10.4 mph - N/A   Overcast
9:00 PM 48.2 °F - 41.0 °F 76% 29.99 in 20.0 mi East 9.2 mph - N/A   Mostly Cloudy
10:00 PM 48.2 °F - 41.0 °F 76% 29.99 in 20.0 mi East 8.1 mph - N/A   Overcast
11:00 PM 48 °F - 41 °F 68% 30.00 in 19 mi East 8.1 mph - -   Overcast
11:00 PM 48.2 °F - 41.0 °F 76% 29.99 in 20.0 mi East 8.1 mph - N/A   Overcast